Oakland, CA

9:58 AM PDT on April 30, 2017 (GMT -0700)
Metro Oakland International

Weather History for KOAK - October, 2013

Change the Weather History Date:

Tuesday, October 8, 2013

  Actual Average Record
Temperature  
Mean Temperature 60 °F 62 °F  
Max Temperature 71 °F 71 °F 84 °F (2002)
Min Temperature 48 °F 52 °F 44 °F (2011)
Degree Days  
Heating Degree Days 5 4  
Month to date heating degree days 14 27  
Since 1 July heating degree days 118 227  
Cooling Degree Days 0 1  
Month to date cooling degree days 13 8  
Year to date cooling degree days 212 133  
Growing Degree Days 8 (Base 50)    
Moisture  
Dew Point 52 °F    
Average Humidity 76    
Maximum Humidity 100    
Minimum Humidity 51    
Precipitation  
Precipitation 0.00 in 0.03 in 0.19 in (1973)
Month to date precipitation 0.00 0.17  
Year to date precipitation 3.43 13.67  
Since 1 July precipitation 0.61  
Sea Level Pressure  
Sea Level Pressure 29.84 in    
Wind  
Wind Speed 5 mph (WNW)    
Max Wind Speed 16 mph    
Max Gust Speed 20 mph    
Visibility 10 miles    
Events      
T = Trace of Precipitation, MM = Missing Value Source: NWS Daily Summary

Daily Weather History Graph

Daily Weather History Graph

Search for Another Location

Airport or City:

Trip Planner

Search our weather history database for the weather conditions in past years. The results will help you decide how hot, cold, wet, or windy it might be!

Date:

Astronomy

Oct. 08, 2013 Rise Set
Actual Time 7:11 AM PDT 6:40 PM PDT
Civil Twilight 6:44 AM PDT 7:07 PM PDT
Nautical Twilight 6:14 AM PDT 7:37 PM PDT
Astronomical Twilight 5:43 AM PDT 8:07 PM PDT
Moon 11:06 AM PDT (10/8) 9:26 PM PDT (10/8)
Length of Visible Light 12h 22m
Length of Day
11h 29m
Waxing Crescent, 17% of the Moon is Illuminated
Oct 8
Waxing Crescent
Oct 11
First Quarter
Oct 18
Full
Oct 26
Last Quarter
Nov 3
New

Hourly Weather History & Observations

Time (PDT) Temp. Dew Point Humidity Pressure Visibility Wind Dir Wind Speed Gust Speed Precip Events Conditions
12:53 AM 53.1 °F 53.1 °F 100% 29.90 in 10.0 mi Calm Calm - N/A   Partly Cloudy
1:53 AM 55.0 °F 55.0 °F 100% 29.91 in 10.0 mi NNW 4.6 mph - N/A   Scattered Clouds
2:53 AM 53.1 °F 53.1 °F 100% 29.89 in 10.0 mi Calm Calm - N/A   Clear
3:53 AM 52.0 °F 52.0 °F 100% 29.89 in 10.0 mi Calm Calm - N/A   Clear
4:53 AM 48.9 °F 48.9 °F 100% 29.90 in 10.0 mi North 4.6 mph - N/A   Clear
5:53 AM 52.0 °F 50.0 °F 93% 29.89 in 10.0 mi Calm Calm - N/A   Clear
6:53 AM 52.0 °F 48.9 °F 89% 29.91 in 10.0 mi Calm Calm - N/A   Clear
7:53 AM 53.1 °F 46.0 °F 77% 29.91 in 10.0 mi Calm Calm - N/A   Clear
8:53 AM 59.0 °F 59.0 °F 100% 29.92 in 10.0 mi Calm Calm - N/A   Clear
9:53 AM 62.1 °F 57.9 °F 86% 29.92 in 10.0 mi West 4.6 mph - N/A   Partly Cloudy
10:53 AM 64.9 °F 55.0 °F 70% 29.91 in 10.0 mi NW 6.9 mph - N/A   Mostly Cloudy
11:53 AM 66.9 °F 52.0 °F 59% 29.90 in 10.0 mi WNW 4.6 mph - N/A   Mostly Cloudy
12:53 PM 68.0 °F 50.0 °F 52% 29.87 in 10.0 mi WNW 4.6 mph - N/A   Mostly Cloudy
1:53 PM 68.0 °F 51.1 °F 55% 29.84 in 10.0 mi WNW 9.2 mph - N/A   Mostly Cloudy
2:53 PM 69.1 °F 50.0 °F 51% 29.81 in 10.0 mi West 10.4 mph - N/A   Mostly Cloudy
3:53 PM 66.0 °F 50.0 °F 56% 29.81 in 10.0 mi NW 11.5 mph - N/A   Scattered Clouds
4:53 PM 64.0 °F 48.9 °F 58% 29.79 in 10.0 mi WNW 9.2 mph - N/A   Scattered Clouds
5:53 PM 62.1 °F 52.0 °F 70% 29.78 in 10.0 mi WNW 6.9 mph - N/A   Partly Cloudy
6:53 PM 59.0 °F 55.0 °F 87% 29.77 in 10.0 mi WNW 8.1 mph - N/A   Partly Cloudy
7:53 PM 57.9 °F 55.9 °F 93% 29.76 in 9.0 mi SW 6.9 mph - N/A   Partly Cloudy
8:53 PM 53.1 °F 53.1 °F 100% 29.75 in 10.0 mi North 3.5 mph - N/A   Partly Cloudy
9:53 PM 57.4 °F 47.5 °F 70% 29.76 in 10.0 mi Calm Calm - N/A   Partly Cloudy
10:53 PM 58.5 °F 50.4 °F 74% 29.75 in 10.0 mi Calm Calm - N/A   Partly Cloudy
11:31 PM 57.2 °F 50.0 °F 77% 29.74 in 9.0 mi South 9.2 mph - N/A   Partly Cloudy
11:53 PM 57.9 °F 50.0 °F 75% 29.73 in 10.0 mi Calm Calm - N/A   Partly Cloudy